• In Germany
  • List of Countries
  • For 7 days
  • Water Temperature
  • Satellite Maps
  • Weather Map
  • Weather Widgets
  • user-avatar
    Login

    Hourly Weather Berat

    Today, 12 December, Tuesday

    Time Temperature Precipitation Wind Pressure Humidity
    00:00 +8°C° 0 mm 5 mps 748 mmHg 87%
    01:00 +8°C° 0 mm 5 mps 747 mmHg 90%
    02:00 +8°C° 0 mm 5 mps 747 mmHg 90%
    03:00 +8°C° 0 mm 5 mps 748 mmHg 90%
    04:00 +9°C° 0 mm 5 mps 748 mmHg 90%
    05:00 +10°C° 0 mm 4 mps 748 mmHg 90%
    06:00 +10°C° 0 mm 4 mps 748 mmHg 90%
    07:00 +9°C° 0 mm 5 mps 747 mmHg 91%
    08:00 +11°C° 0 mm 4 mps 748 mmHg 90%
    09:00 +12°C° 0 mm 4 mps 748 mmHg 88%
    10:00 +13°C° 0 mm 4 mps 748 mmHg 86%
    11:00 +13°C° 0 mm 4 mps 748 mmHg 84%
    12:00 +14°C° 0 mm 4 mps 748 mmHg 83%
    13:00 +14°C° 0 mm 6 mps 748 mmHg 83%
    14:00 +13°C° 0 mm 5 mps 748 mmHg 85%
    15:00 +13°C° 0 mm 4 mps 748 mmHg 87%
    16:00 +12°C° 0 mm 3 mps 748 mmHg 90%
    17:00 +12°C° 0 mm 4 mps 748 mmHg 90%
    18:00 +11°C° 0 mm 4 mps 748 mmHg 91%
    19:00 +11°C° 0 mm 4 mps 749 mmHg 92%
    20:00 +11°C° 0 mm 4 mps 749 mmHg 91%
    21:00 +11°C° 0 mm 4 mps 749 mmHg 91%
    22:00 +11°C° 0 mm 4 mps 749 mmHg 91%
    23:00 +10°C° 0 mm 3 mps 749 mmHg 91%

    Tomorrow, 13 December, Wednesday

    Time Temperature Precipitation Wind Pressure Humidity
    00:00 +10°C° 0 mm 3 mps 749 mmHg 91%
    01:00 +10°C° 0 mm 3 mps 749 mmHg 91%
    02:00 +10°C° 0 mm 3 mps 749 mmHg 91%
    03:00 +10°C° 0 mm 3 mps 749 mmHg 91%
    04:00 +10°C° 0 mm 3 mps 749 mmHg 91%
    05:00 +10°C° 0 mm 3 mps 749 mmHg 91%
    06:00 +10°C° 0 mm 3 mps 749 mmHg 91%
    07:00 +10°C° 0 mm 3 mps 749 mmHg 90%
    08:00 +11°C° 0 mm 4 mps 749 mmHg 87%
    09:00 +12°C° 0 mm 4 mps 749 mmHg 83%
    10:00 +13°C° 0 mm 4 mps 749 mmHg 80%
    11:00 +14°C° 0 mm 4 mps 748 mmHg 77%
    12:00 +15°C° 0 mm 4 mps 748 mmHg 73%
    13:00 +17°C° 0 mm 4 mps 747 mmHg 70%
    14:00 +15°C° 0 mm 4 mps 747 mmHg 74%
    15:00 +14°C° 0 mm 4 mps 747 mmHg 79%
    16:00 +13°C° 0 mm 4 mps 747 mmHg 84%
    17:00 +12°C° 0 mm 4 mps 746 mmHg 86%
    18:00 +12°C° 0 mm 4 mps 746 mmHg 88%
    19:00 +12°C° 0 mm 4 mps 746 mmHg 89%
    20:00 +12°C° 0.6 mm 4 mps 746 mmHg 90%
    21:00 +11°C° 0.6 mm 4 mps 746 mmHg 91%
    22:00 +11°C° 0.6 mm 4 mps 746 mmHg 92%
    23:00 +11°C° 1.5 mm 4 mps 746 mmHg 93%

    Day after tomorrow, 14 December, Thursday

    Time Temperature Precipitation Wind Pressure Humidity
    00:00 +11°C° 1.5 mm 3 mps 745 mmHg 94%
    01:00 +11°C° 1.5 mm 3 mps 745 mmHg 96%
    02:00 +11°C° 0.7 mm 3 mps 745 mmHg 95%
    03:00 +12°C° 0.7 mm 2 mps 745 mmHg 94%
    04:00 +10°C° 0.7 mm 2 mps 745 mmHg 93%
    05:00 +10°C° 0.1 mm 2 mps 745 mmHg 93%
    06:00 +10°C° 0.1 mm 2 mps 745 mmHg 92%
    07:00 +9°C° 0.1 mm 2 mps 746 mmHg 91%
    08:00 +10°C° 0 mm 2 mps 746 mmHg 86%
    09:00 +10°C° 0 mm 2 mps 746 mmHg 80%
    10:00 +12°C° 0 mm 2 mps 746 mmHg 74%
    11:00 +12°C° 0 mm 2 mps 746 mmHg 71%
    12:00 +13°C° 0 mm 2 mps 746 mmHg 67%
    13:00 +13°C° 0 mm 2 mps 746 mmHg 64%
    14:00 +12°C° 0 mm 2 mps 746 mmHg 67%
    15:00 +11°C° 0 mm 1 mps 746 mmHg 71%
    16:00 +11°C° 0 mm 1 mps 746 mmHg 74%
    17:00 +10°C° 0 mm 1 mps 746 mmHg 76%
    18:00 +10°C° 0 mm 1 mps 746 mmHg 78%
    19:00 +9°C° 0 mm 1 mps 747 mmHg 80%
    20:00 +8°C° 0 mm 2 mps 747 mmHg 80%
    21:00 +8°C° 0 mm 2 mps 747 mmHg 81%
    22:00 +8°C° 0 mm 3 mps 747 mmHg 81%
    23:00 +8°C° 0 mm 3 mps 746 mmHg 81%

    15 December, Friday

    Time Temperature Precipitation Wind Pressure Humidity
    00:00 +7°C° 0 mm 3 mps 746 mmHg 81%
    01:00 +7°C° 0 mm 3 mps 746 mmHg 81%
    02:00 +7°C° 0 mm 3 mps 746 mmHg 81%
    03:00 +7°C° 0 mm 3 mps 745 mmHg 81%
    04:00 +7°C° 0 mm 3 mps 745 mmHg 81%
    05:00 +6°C° 0 mm 4 mps 745 mmHg 82%
    06:00 +6°C° 0 mm 4 mps 745 mmHg 82%
    07:00 +6°C° 0 mm 4 mps 745 mmHg 82%
    08:00 +8°C° 0 mm 5 mps 745 mmHg 80%
    09:00 +10°C° 0 mm 5 mps 744 mmHg 77%
    10:00 +13°C° 0 mm 5 mps 744 mmHg 74%
    11:00 +13°C° 0 mm 6 mps 744 mmHg 74%
    12:00 +14°C° 0 mm 6 mps 743 mmHg 75%
    13:00 +14°C° 0 mm 6 mps 743 mmHg 75%
    14:00 +13°C° 0 mm 6 mps 742 mmHg 79%
    15:00 +13°C° 0 mm 5 mps 742 mmHg 83%
    16:00 +12°C° 0 mm 5 mps 742 mmHg 86%
    17:00 +10°C° 0 mm 5 mps 742 mmHg 87%
    18:00 +10°C° 0 mm 5 mps 742 mmHg 89%
    19:00 +10°C° 0 mm 5 mps 742 mmHg 90%
    20:00 +10°C° 0.1 mm 5 mps 742 mmHg 90%
    21:00 +10°C° 0.1 mm 5 mps 742 mmHg 90%
    22:00 +10°C° 0.1 mm 5 mps 742 mmHg 90%
    23:00 +10°C° 0.1 mm 5 mps 742 mmHg 91%

    16 December, Saturday

    Time Temperature Precipitation Wind Pressure Humidity
    00:00 +10°C° 0.1 mm 5 mps 742 mmHg 92%
    01:00 +10°C° 0.1 mm 5 mps 742 mmHg 93%
    02:00 +10°C° 0.1 mm 5 mps 741 mmHg 93%
    03:00 +10°C° 0.1 mm 5 mps 741 mmHg 93%
    04:00 +10°C° 0.1 mm 5 mps 741 mmHg 93%
    05:00 +10°C° 0 mm 5 mps 741 mmHg 93%
    06:00 +10°C° 0 mm 5 mps 741 mmHg 92%
    07:00 +11°C° 0 mm 4 mps 741 mmHg 92%
    08:00 +12°C° 0.1 mm 5 mps 741 mmHg 88%
    09:00 +13°C° 0.1 mm 5 mps 741 mmHg 83%
    10:00 +14°C° 0.1 mm 5 mps 740 mmHg 79%
    11:00 +15°C° 0.2 mm 5 mps 740 mmHg 77%
    12:00 +15°C° 0.2 mm 5 mps 740 mmHg 74%
    13:00 +15°C° 0.2 mm 5 mps 740 mmHg 72%
    14:00 +14°C° 0.4 mm 5 mps 740 mmHg 76%
    15:00 +13°C° 0.4 mm 4 mps 739 mmHg 81%
    16:00 +12°C° 0.4 mm 4 mps 739 mmHg 85%
    17:00 +12°C° 1.1 mm 3 mps 739 mmHg 87%
    18:00 +11°C° 1.1 mm 3 mps 740 mmHg 89%
    19:00 +11°C° 1.1 mm 3 mps 740 mmHg 91%
    20:00 +11°C° 1.4 mm 3 mps 739 mmHg 92%
    21:00 +10°C° 1.4 mm 2 mps 739 mmHg 92%
    22:00 +10°C° 1.4 mm 2 mps 739 mmHg 92%
    23:00 +10°C° 1.3 mm 2 mps 739 mmHg 92%

    17 December, Sunday

    Time Temperature Precipitation Wind Pressure Humidity
    00:00 +11°C° 1.3 mm 1 mps 739 mmHg 92%
    01:00 +11°C° 1.3 mm 1 mps 739 mmHg 92%
    02:00 +11°C° 1.3 mm 1 mps 738 mmHg 92%
    03:00 +11°C° 1.3 mm 1 mps 738 mmHg 93%
    04:00 +10°C° 1.3 mm 1 mps 738 mmHg 93%
    05:00 +10°C° 0.3 mm 1 mps 739 mmHg 92%
    06:00 +10°C° 0.3 mm 1 mps 739 mmHg 92%
    07:00 +10°C° 0.3 mm 1 mps 740 mmHg 92%
    08:00 +11°C° 0 mm 1 mps 740 mmHg 87%
    09:00 +12°C° 0 mm 1 mps 741 mmHg 83%
    10:00 +13°C° 0 mm 1 mps 741 mmHg 79%
    11:00 +13°C° 0.1 mm 2 mps 741 mmHg 79%
    12:00 +13°C° 0.1 mm 2 mps 741 mmHg 78%
    13:00 +12°C° 0.1 mm 3 mps 741 mmHg 78%
    14:00 +13°C° 0.1 mm 2 mps 742 mmHg 80%
    15:00 +12°C° 0.1 mm 2 mps 742 mmHg 83%
    16:00 +10°C° 0.1 mm 2 mps 742 mmHg 85%
    17:00 +10°C° 0.1 mm 2 mps 743 mmHg 87%
    18:00 +10°C° 0.1 mm 2 mps 743 mmHg 88%
    19:00 +10°C° 0.1 mm 1 mps 744 mmHg 89%
    20:00 +10°C° 0 mm 1 mps 744 mmHg 89%
    21:00 +9°C° 0 mm 1 mps 745 mmHg 89%
    22:00 +9°C° 0 mm 1 mps 745 mmHg 89%
    23:00 +9°C° 0 mm 1 mps 745 mmHg 88%
    Show more